Weather in Manino

Russia / Voronezh Oblast     50°28′31″N   41°23′30″E
temp.,
°C
wind,
m/s
gust,
m/s
humid.,
%
clouds,
%
prec.,
mm/h
press.,
hPa
HPBL,
m
25 july, sun
sun2500:00+18nne127575 0.0 101518
03:00+15nne23790 0.0 101626
06:00+16ne23760 0.0 101882
09:00+23ene33520 0.0 1018832
12:00+25ene533967 0.0 10192367
15:00+26ene433734 0.0 10191904
18:00+25ene43380 0.0 10191511
21:00+20e365115 0.0 1021105
26 july, mon
mon2600:00+18ene3556100 0.0 1022108
03:00+18ene3554100 0.0 1022131
06:00+18ne235499 0.0 1023113
09:00+22ene444472 0.0 1023441
12:00+27ene323140 0.0 10232491
15:00+28ne322840 0.0 10212665
18:00+26nne553514 0.0 1021880
21:00+19ene410555 0.0 1023206
27 july, tue
tue2700:00+17e36600 0.0 102389
03:00+16e34610 0.0 102354
06:00+18ene23570 0.0 102374
09:00+25ene33370 0.0 1023795
12:00+28ene332814 0.0 10212651
15:00+29nne432652 0.0 10202771
18:00+28ne43283 0.0 10201890
21:00+21ene464556 0.0 102089
28 july, wed
wed2800:00+20e224620 0.0 102028
03:00+18sse225311 0.0 102011
06:00+19s22525 0.0 102037
09:00+26s22335 0.0 1019908
12:00+30ssw22259 0.0 10182961
15:00+30sw332322 0.0 10163041
18:00+30ssw3426100 0.0 1015974
21:00+24s4635100 0.0 101597
29 july, thu
thu2900:00+22sw2241100 0.0 101429
03:00+22s3637100 0.0 1013133
06:00+22w3643100 0.0 1012164
09:00+20s3782100 1.2 1012215
12:00+28sw811432 0.1 10101461
15:00+30w7103998 0.1 10082622
18:00+28w4847100 0.1 1008459
21:00+24sw345643 0.1 100871